Location: Betpouey
(42.8833°N, 0.0333°E)
Time: 08:09:31
(UTC+00:00)

SL-16 R/B - Pass Details

Date: 01 December 2020
Orbit: 841 x 849 km, 71.0° (Epoch: 17 January)

Event Time Altitude Azimuth Distance (km) Brightness Sun altitude
Rises 16:49:16 0° 199° (SSW) 3,382 6.1 -4.5°
Reaches altitude 10° 16:51:42 10° 198° (SSW) 2,451 5.3 -4.9°
Maximum altitude 16:57:19 81° 113° (ESE) 857 2.2 -5.8°
Drops below altitude 10° 17:02:59 10° 27° (NNE) 2,466 4.2 -6.8°
Sets 17:05:26 0° 26° (NNE) 3,405 4.9 -7.2°
Enters shadow 17:05:28 - 26° (NNE) 3,418 4.9 -7.2°
